weather.gov     
National Weather Service

Regional Weather Roundup
NWS Homepage
This page is being discontinued on March 12, 2014.
The same data is available at this site. Please update your bookmarks.
Thank you, and we apologize for the inconvenience.
Please send an email to SR-SRH.Webmaster@noaa.gov with any concerns.


Current Version
Previous Version:    01  02  03  04  05  06  07  08  09  10  11  12  13  14  15  16  17  18  19  20  21  22  23  24  25  26  
[Printable]
176
ASUS42 KILM 221710
RWRILM
RWRILM
REGIONAL HOURLY WEATHER ROUNDUP
NATIONAL WEATHER SERVICE WILMINGTON NC
100 PM EDT TUE JUL 22 2014

NOTE: "FAIR" INDICATES FEW OR NO CLOUDS BELOW 12,000 FEET WITH NO
SIGNIFICANT WEATHER AND/OR OBSTRUCTIONS TO VISIBILITY.

...............WFO WILMINGTON COUNTY WARNING AREA...............

......COASTAL NC AND SC COUNTIES......

CITY           SKY/WX    TMP DP  RH WIND       PRES   REMARKS
WILMINGTON     RAIN      79  75  87 NE5       30.12S FOG
SOUTHPORT      DRIZZLE   80  76  87 CALM      30.11F
N MYRTLE BEACH MOSUNNY   85  74  69 NW5       30.10F HX  92
MYRTLE BEACH   PTSUNNY   84  75  74 SE6       30.11F HX  92

......INLAND NC AND SC COUNTIES.......

CITY           SKY/WX    TMP DP  RH WIND       PRES   REMARKS
LUMBERTON      MOSUNNY   84  73  69 E6        30.12F HX  90
ELIZABETHTOWN  MOSUNNY   82  73  73 CALM      30.13F
WHITEVILLE     PTSUNNY   84  74  72 NE5       30.12S HX  91
FLORENCE       PTSUNNY   82  73  74 VRB6      30.13F
DARLINGTON     PTSUNNY   81  73  78 N5        30.15F

....................REST OF NORTH CAROLINA......................

.........EASTERN NC.........

CITY           SKY/WX    TMP DP  RH WIND       PRES   REMARKS
CAPE HATTERAS  CLOUDY    82  75  79 S12       30.15F
JACKSONVILLE   CLOUDY    82  72  69 CALM      30.12F
MOREHEAD CITY  CLOUDY    77  75  93 S13       30.14F
KENANSVILLE    MOSUNNY   83  72  68 CALM      30.13F
NEW BERN       CLOUDY    86  74  67 SE9       30.13F HX  94
ELIZABETH CITY PTSUNNY   82  73  74 E12       30.15F

.........CENTRAL NC.........

CITY           SKY/WX    TMP DP  RH WIND       PRES   REMARKS
RALEIGH DURHAM CLOUDY    79  71  76 N5        30.16F
ROCKY MOUNT    CLOUDY    84  72  67 NE5       30.14S
ROANOKE RAPIDS NOT AVBL
FAYETTEVILLE   CLOUDY    84  73  69 VRB5      30.13F HX  90
HOFFMAN        PTSUNNY   81  71  72 NE8       30.16S

.........WESTERN NC.........

CITY           SKY/WX    TMP DP  RH WIND       PRES   REMARKS
CHARLOTTE      CLOUDY    80  70  71 VRB6      30.17F
GREENSBORO     PTSUNNY   79  70  74 SE3       30.17F
HICKORY        NOT AVBL
BOONE          NOT AVBL
ASHEVILLE      NOT AVBL

.....................REST OF SOUTH CAROLINA.....................

.........EASTERN SC.........

CITY           SKY/WX    TMP DP  RH WIND       PRES   REMARKS
CHARLESTON     PTSUNNY   86  72  62 SE6       30.10F HX  92
BEAUFORT MCAS  PTSUNNY   88  72  58 CALM      30.09F HX  94
HILTON HEAD    NOT AVBL

.........CENTRAL SC.........

CITY           SKY/WX    TMP DP  RH WIND       PRES   REMARKS
COLUMBIA       CLOUDY    84  72  67 E9        30.11F
ORANGEBURG     LGT RAIN  83  73  72 CALM      30.10F
SUMTER SHAW    CLOUDY    81  75  83 NE8       30.11F

.........WESTERN SC.........

CITY           SKY/WX    TMP DP  RH WIND       PRES   REMARKS
GREENVILLE     NOT AVBL
ROCK HILL      CLOUDY    79  72  79 NE6       30.16F
ANDERSON       CLOUDY    80  69  69 NE8       30.15F
CLEMSON        NOT AVBL
GREENWOOD      PTSUNNY   84  69  60 E7        30.15F


...................COASTAL AND OFFSHORE REPORTS..................

................LOCAL PIERS AND NC RESERVE................


STATION/POSITION TIME  SKY/WX   TEMP    WIND        PRES    VSBY
                                AIR SEA DIR/SP/G
                 (UTC)          (F)     (DEG/KT/KT) (MB)    (MI)
JOHNY MRCER PIER 1700            78 83  120/  6/  8 1019.4F
NC RESRV MASNBRO 1600            77     140/  2     1020.0S
OCEAN CREST PIER 1700            77 83  150/  3/  3 1018.6F
SPRINGMAID  PIER 1700            81 82   80/  7/  8 1019.5F


................COASTAL AND OFFSHORE BUOYS................


STATION/POSITION TIME  SKY/WX   TEMP    WIND        PRES    VSBY
                                AIR SEA DIR/SP/G
                 (UTC)          (F)     (DEG/KT/KT) (MB)    (MI)
DIMNDSHOAL 41025 1700                   VRB 14/ 16  1020.9F
WVE H/P(F/S)=  4/ 7 WND WVE H/P(F/S)=  3/ 6 SWL H/P/D(F/S/D)=  2/130/ 7

CAPE LOOKOUT     1600            78     160/ 13/ 15 1020.9R
ONSLOW BAY 41036 1700            77 80  150/ 12/ 14 1020.5F
WVE H/P(F/S)=  3/ 5 WND WVE H/P(F/S)=  2/ 5 SWL H/P/D(F/S/D)=  2/150/ 6

5 WRITEBCH 41038 1600            74     140/  6/  8   N/A
MASONBORO  41110 1700               81                N/A
WVE H/P(F/S)=  3/ 6 WND WVE H/P(F/S)=  3/ 6

WILM HARBR 41108 NOT AVBL
27WRITEBCH 41037 1600            74 80  160/ 10/ 10 1020.4R
FRYING PAN 41013 NOT AVBL
SUNST NRSH 41024 1600            89      CALM  /  2 1019.8R
CAPRS NRSH 41029 1600            76      50/  8/  8   N/A
EDISTO     41004 1700            78 82   30/  4/  6 1019.4R
WVE H/P(F/S)=  3/ 6 WND WVE H/P(F/S)=  2/ 4 SWL H/P/D(F/S/D)=  3/ 6



..........OFFSHORE BUOYS BEYOND 100 NM OFFSHORE...........
.....IN A TRIANGLE---HAT TO BERMUDA TO BAHAMAS TO HAT.....


STATION/POSITION TIME  SKY/WX   TEMP    WIND        PRES    VSBY
                                AIR SEA DIR/SP/G
                 (UTC)          (F)     (DEG/KT/KT) (MB)    (MI)
150E HAT   41001 NOT AVBL
W BERMUDA  41048 1605            82 83  210/ 10/ 12 1023.0
WVE H/P(F/S)=  3/ 9 WND WVE H/P(F/S)=  2/ 4 SWL H/P/D(F/S/D)=  3/120/ 9

ATLANTIC S 41049 1608            81 83  130/  6/  8 1023.0F
WVE H/P(F/S)=  3/ 8 WND WVE H/P(F/S)=  2/ 3 SWL H/P/D(F/S/D)=  2/140/ 8

E BAHAMAS  41046 1634            83 84  110/ 16/ 17 1020.6F
WVE H/P(F/S)=  4/ 6 WND WVE H/P(F/S)=  3/ 6 SWL H/P/D(F/S/D)=  2/100/ 8

NE BAHAMAS 41047 1611            83 85  140/ 12/ 16 1021.6F
WVE H/P(F/S)=  4/ 6 WND WVE H/P(F/S)=  3/ 6 SWL H/P/D(F/S/D)=  2/130/ 6

120E CANVRL41010 1700            82 83  160/ 16/ 21 1019.1S
WVE H/P(F/S)=  5/ 6 WND WVE H/P(F/S)=  5/ 6 SWL H/P/D(F/S/D)=  2/160/12


END




U.S. Dept. of Commerce
NOAA National Weather Service
1325 East West Highway
Silver Spring, MD 20910
E-mail: w-nws.webmaster@noaa.gov
Page last modified: May 16, 2007
NATIONAL WEATHER SERVICE: for Safety, for Work, for Fun - FOR LIFE